Location: Newark
(44.1906°N, 75.9681°W)
Time: 20:40:34
(UTC+00:00)

Envisat - Pass Details

Date: 28 January 2020
Orbit: 764 x 766 km, 98.1° (Epoch: 22 February)

Event Time Altitude Azimuth Distance (km) Brightness Sun altitude
Rises 11:00:55 0° 22° (NNE) 3,241 6.4 -15.4°
Reaches altitude 10° 11:03:29 10° 33° (NNE) 2,310 5.8 -14.9°
Maximum altitude 11:07:59 31° 95° (E) 1,311 5.0 -14.1°
Drops below altitude 10° 11:12:28 10° 158° (SSE) 2,294 6.0 -13.4°
Sets 11:15:00 0° 168° (SSE) 3,215 6.6 -12.9°
